Flag for France Weather past 2 weeks in Rouen, France

Now
66 °F

Mostly cloudy.


Feels Like: 66 °F
Forecast: 58 / 70 °F
Wind: 12 mph from West

Location: Rouen Airport

Current Time: Aug 28, 2014 at 1:17:42 PM

Latest Report: Aug 28, 2014 at 1:00 PM


Visibility: N/A

Pressure: 29.95 "Hg

Humidity: 83%

Dew point: 61 °F

Location of RouenLocation

Historic Weather in Rouen — Graph

°F

Rouen temperature yesterday

Maximum temperature yesterday: 72 °F (at 4:00 PM)
Minimum temperature yesterday: 55 °F (at 4:30 AM)
Average temperature yesterday: 62 °F

Past Weeks' High & Low Weather Summary

 TemperatureHumidityPressure
High72 °F (Aug 26, 2:00 PM)100% (Aug 14, 7:00 AM)30.21 "Hg (Aug 14, 7:00 AM)
Low43 °F (Aug 21, 5:30 AM)43% (Aug 18, 5:00 PM)29.65 "Hg (Aug 25, 9:30 PM)
Average58 °F81%29.96 "Hg
* Reported Aug 13 12:00 Noon — Aug 28 12:00 Noon, Rouen, Weather by CustomWeather, © 2014

Note: Actual official high and low records may vary slightly from our data, if they occured in-between our weather recording intervals... More about our weather records

Advertising

Rouen weather history for previous 24 hours

 ConditionsComfort  
Time TempWeatherWind HumidityBarometerVisibility
12:00 PM
Aug 28
64 °FPartly sunny.12 mph94%29.95 "HgN/A
11:30 AM64 °FLow clouds.9 mph94%29.92 "HgN/A
11:00 AM63 °FRain. Fog.12 mph94%29.92 "Hg2 mi
10:30 AM64 °FDrizzle. Fog.6 mph94%29.92 "Hg2 mi
10:00 AM64 °FLow clouds.8 mph94%29.92 "HgN/A
9:30 AM63 °FLight rain. Fog.6 mph100%29.92 "Hg1 mi
9:00 AM63 °FLow clouds.8 mph94%29.92 "HgN/A
8:30 AM63 °FMostly cloudy.5 mph94%29.92 "HgN/A
8:00 AM63 °FMostly cloudy.8 mph94%29.92 "HgN/A
7:30 AM63 °FMostly cloudy.9 mph94%29.92 "HgN/A
7:00 AM63 °FOvercast.9 mph94%29.92 "HgN/A
6:30 AM61 °FPartly cloudy.7 mph94%29.92 "HgN/A
6:00 AM61 °FPartly cloudy.7 mph94%29.92 "HgN/A
5:30 AM61 °FMostly cloudy.7 mph94%29.92 "HgN/A
5:00 AM61 °FMostly cloudy.7 mph94%29.92 "HgN/A
4:30 AM61 °FMostly cloudy.9 mph94%29.92 "HgN/A
4:00 AM61 °FOvercast.8 mph94%29.92 "HgN/A
3:30 AM61 °FPassing clouds.8 mph94%29.92 "HgN/A
3:00 AM61 °FPassing clouds.9 mph94%29.92 "HgN/A
2:30 AM61 °FPartly cloudy.10 mph94%29.92 "HgN/A
2:00 AM61 °FMostly cloudy.9 mph94%29.95 "HgN/A
1:30 AM61 °FDrizzle. Overcast.10 mph94%29.95 "Hg4 mi
1:00 AM63 °FOvercast.8 mph83%29.95 "HgN/A
12:30 AM63 °FOvercast.6 mph83%29.95 "HgN/A
12:00 AM63 °FOvercast.8 mph83%29.95 "HgN/A
11:30 PM
Aug 27
61 °FOvercast.5 mph88%29.95 "HgN/A
11:00 PM61 °FPassing clouds.5 mph88%29.95 "HgN/A
10:30 PM61 °FClear.6 mph88%29.95 "HgN/A
10:00 PM61 °FClear.6 mph83%29.98 "HgN/A
9:30 PM61 °FClear.5 mph83%29.98 "HgN/A
9:00 PM63 °FLight rain. Fog.8 mph77%29.95 "Hg3 mi
8:30 PM64 °FClear.8 mph78%29.95 "HgN/A
8:00 PM64 °FClear.8 mph78%29.95 "HgN/A
7:30 PM66 °FOvercast.10 mph73%29.95 "HgN/A
7:00 PM68 °FOvercast.7 mph69%29.95 "HgN/A
6:30 PM68 °FOvercast.6 mph69%29.95 "HgN/A
6:00 PM68 °FOvercast.7 mph69%29.95 "HgN/A
4:30 PM70 °FClear.9 mph64%29.95 "HgN/A
4:00 PM72 °FPartly sunny.10 mph61%29.98 "HgN/A
3:30 PM70 °FScattered clouds.10 mph64%29.98 "HgN/A
3:00 PM70 °FPartly sunny.9 mph69%29.98 "HgN/A
2:30 PM68 °FMore clouds than sun.12 mph73%29.98 "HgN/A
2:00 PM66 °FMostly cloudy.7 mph78%29.98 "HgN/A
1:30 PM68 °FPartly sunny.5 mph78%29.98 "HgN/A
1:00 PM66 °FPartly sunny.3 mph78%29.98 "HgN/A
Weather by CustomWeather, © 2014

See weather overviewHow to use our weather pages